Location: Alto Pass Reservoir
(37.5801°N, 89.3084°W)
Time: 08:20:40
(UTC+00:00)

Cosmos 1666 - Pass Details

Date: 04 July 2022
Orbit: 489 x 511 km, 82.5° (Epoch: 07 August)

Event Time Altitude Azimuth Distance (km) Brightness Sun altitude
Exits shadow 10:09:04 - 249° (WSW) 1,936 5.0 -6.2°
Reaches altitude 10° 10:10:09 10° 262° (W) 1,708 4.8 -6.0°
Maximum altitude 10:11:43 12° 287° (WNW) 1,572 4.8 -5.8°
Drops below altitude 10° 10:13:17 10° 312° (NW) 1,708 5.2 -5.5°
Sets 10:16:34 0° 344° (NNW) 2,591 6.5 -5.0°
